Regional Weather Roundup
Issued by NWS Northern Indiana

Home | Current Version | Previous Version | Text Only | Print | Product List | Glossary On
Versions: 1 2 3 4 5 6 7 8 9 10 11 12 13 14 15 16 17 18 19 20 21 22 23 24 25 26 27 28 29 30 31 32 33 34 35 36 37 38 39 40 41 42 43 44 45 46 47 48 49 50
000
ASUS43 KIWX 070010
RWRIWX

KIWX WEATHER ROUNDUP
NATIONAL WEATHER SERVICE NORTHERN INDIANA
800 PM EDT FRI MAY 06 2016

NOTE: "FAIR" INDICATES FEW OR NO CLOUDS BELOW 12,000 FEET WITH NO
SIGNIFICANT WEATHER AND/OR OBSTRUCTIONS TO VISIBILITY.

* THESE STATIONS ARE NOT UNDER NWS QUALITY CONTROL. THEY ALSO MAY NOT
  REPORT WEATHER SUCH AS PRECIPITATION OR FOG.

INZ001>027-070100-
NORTHERN INDIANA

CITY           SKY/WX    TMP DP  RH WIND       PRES   REMARKS
GARY*          PTCLDY    82  55  39 W12       29.79F
VALPARAISO     CLEAR     73  45  36 S6        29.81F
6HR MIN TEMP:  71; 6HR MAX TEMP:  76;

MICHIGAN CITY* CLEAR     73  45  35 SE5       29.81F
LAPORTE*       CLEAR     73  44  34 S3        29.82F
6HR MIN TEMP:  72; 6HR MAX TEMP:  76;

KNOX*            N/A     72  32  23 S6          N/A
SOUTH BEND     CLEAR     71  45  39 S7        29.83F
6HR MIN TEMP:  69; 6HR MAX TEMP:  73;

ELKHART*       CLEAR     72  50  46 SW5       29.84F
GOSHEN         CLEAR     68  49  50 SW5       29.84F
6HR MIN TEMP:  66; 6HR MAX TEMP:  70;

MONTICELLO*    PTCLDY    72  36  27 SW7       29.84S
6HR MIN TEMP:  69; 6HR MAX TEMP:  75;

LOGANSPORT*    PTCLDY    68  46  45 SW5       29.86S
ROCHESTER*     CLEAR     72  45  37 S5        29.85F
WARSAW*        PTCLDY    68  45  42 W3        29.85F
ANGOLA*          N/A     70  43  37 W6        29.85F
FORT WAYNE     PTCLDY    68  46  45 W7        29.86F
6HR MIN TEMP:  67; 6HR MAX TEMP:  71;

HUNTINGTON*    CLEAR    N/A N/A N/A W3        29.86S
PERU/GRISSOM   MOCLDY    68  53  56 S5        29.85F
6HR MIN TEMP:  68; 6HR MAX TEMP:  72;

MARION*        CLEAR     67  45  45 W3        29.88F
6HR MIN TEMP:  -1; 6HR MAX TEMP:  82;


$$
INZ028>050-070100-
CENTRAL INDIANA

CITY           SKY/WX    TMP DP  RH WIND       PRES   REMARKS
LAFAYETTE      CLEAR     70  42  36 SW6       29.84F
6HR MIN TEMP:  69; 6HR MAX TEMP:  74;

KOKOMO*        PTCLDY    70  48  46 W5        29.85F
6HR MIN TEMP:  66; 6HR MAX TEMP:  72;

MUNCIE*        CLEAR     68  43  40 W7        29.88S
6HR MIN TEMP:  67; 6HR MAX TEMP:  71;

INDIANAPOLIS   PTCLDY    67  43  41 W8        29.88F
6HR MIN TEMP:  67; 6HR MAX TEMP:  72;


$$
MIZ043>046-050>051-056>058-064>065-071>073-077>080-070100-
SOUTHWEST LOWER MICHIGAN

CITY           SKY/WX    TMP DP  RH WIND       PRES   REMARKS
BATTLE CREEK   CLEAR     68  43  40 SW8       29.84F
6HR MIN TEMP:  68; 6HR MAX TEMP:  73;

BENTON HARBOR  CLEAR     71  42  35 S7        29.80F
6HR MIN TEMP:  67; 6HR MAX TEMP:  73;

COLDWATER*     CLEAR     67  43  42 W3        29.84S
6HR MIN TEMP:  66; 6HR MAX TEMP:  72;

HILLSDALE*     CLEAR     67  35  30 W5        29.85S
HOLLAND        CLEAR     67  42  40 S7        29.81F
6HR MIN TEMP:  67; 6HR MAX TEMP:  71;

GRAND RAPIDS   PTCLDY    70  39  32 W8        29.82F
6HR MIN TEMP:  70; 6HR MAX TEMP:  75;

KALAMAZOO      CLEAR     69  40  34 W7        29.84S
6HR MIN TEMP:  68; 6HR MAX TEMP:  73;

STURGIS*       CLEAR     68  40  36 W3        29.83F
6HR MIN TEMP:  67; 6HR MAX TEMP:  71;

THREE RIVERS*  FAIR      70  39  32 W6        29.84F

$$
OHZ001>008-015>018-024>025-070100-
NORTHWEST OHIO

CITY           SKY/WX    TMP DP  RH WIND       PRES   REMARKS
WAUSEON*         N/A     68 N/A N/A W6        29.84S
DEFIANCE       CLEAR     70  38  31 CALM      29.85S
6HR MIN TEMP:  68; 6HR MAX TEMP:  73;

FINDLAY        CLEAR     67  40  37 W7        29.84S
6HR MIN TEMP:  67; 6HR MAX TEMP:  71;

TOLEDO EXPRESS CLEAR     69  40  34 NW7       29.83S
6HR MIN TEMP:  67; 6HR MAX TEMP:  72;

TOLEDO METCALF CLEAR     67  42  40 NW6       29.84S
6HR MIN TEMP:  67; 6HR MAX TEMP:  72;

LIMA           CLEAR     66  40  38 NW6       29.86S
6HR MIN TEMP:  64; 6HR MAX TEMP:  68;


$$
AND FOR LAKE MICHIGAN COASTAL AND OPEN LAKE BUOY OBSERVATIONS

STATION/POSITION TEMP    WIND        PRES    VSBY  WAVE
                 AIR SEA DIR/SP/G                  HT/PER
                 (F)     (DEG/KT/KT) (MB)    (MI)  (FT/S)
CALUMET HARBOR                       1008.3F
MICHIGAN CITY     75     160/ 10/ 11   N/A
BURNS HARBOR      75     200/  5/ 10 1009.8F
SAINT JOSEPH      73     130/  2/  5 1009.5F
SOUTH LAKE BUOY   49 41  140/ 12/ 14 1008.0F         1/ 3
4 MI NW BRIDGMAN  64 32                N/A           0

$$
&&




USA.gov is the U.S. government's official web portal to all federal, state and local government web resources and services.